| time (UTC) | temp F | wind direction | speed MPH | gust MPH | rain 1hr in | rain 24hr in | rain mn in | humidity % | barometer mb |
| 20260831144601 | 72 | 345 | 2.0 | 6.0 | 0.00 | 0.32 | 0.01 | 74 | 1019.7 |
| 20260831143101 | 71 | 11 | 2.0 | 5.0 | 0.00 | 0.32 | 0.01 | 74 | 1019.6 |
| 20260831141607 | 70 | 49 | 3.0 | 6.0 | 0.00 | 0.32 | 0.01 | 74 | 1019.6 |
| 20260831140056 | 70 | 73 | 1.0 | 5.0 | 0.00 | 0.32 | 0.01 | 75 | 1019.6 |
| 20260831134554 | 69 | 350 | 1.0 | 5.0 | 0.00 | 0.32 | 0.01 | 77 | 1019.4 |
| 20260831133052 | 68 | 71 | 2.0 | 9.0 | 0.00 | 0.32 | 0.01 | 77 | 1019.3 |
| 20260831131549 | 68 | 85 | 1.0 | 6.0 | 0.00 | 0.32 | 0.01 | 82 | 1019.3 |
| 20260831130052 | 67 | 84 | 1.0 | 5.0 | 0.00 | 0.32 | 0.01 | 83 | 1019.3 |
| 20260831124549 | 67 | 45 | 0.0 | 4.0 | 0.00 | 0.32 | 0.01 | 85 | 1019.4 |
| 20260831123046 | 66 | 45 | 1.0 | 4.0 | 0.00 | 0.32 | 0.01 | 88 | 1019.4 |
| 20260831121547 | 65 | 68 | 1.0 | 3.0 | 0.00 | 0.32 | 0.01 | 90 | 1019.2 |
| 20260831120050 | 65 | 338 | 0.0 | 3.0 | 0.00 | 0.32 | 0.01 | 91 | 1019.1 |
| 20260831114545 | 64 | 338 | 0.0 | 0.0 | 0.00 | 0.32 | 0.01 | 91 | 1019.0 |
| 20260831113048 | 64 | 338 | 0.0 | 0.0 | 0.00 | 0.32 | 0.01 | 92 | 1018.8 |
| 20260831111539 | 63 | 338 | 0.0 | 0.0 | 0.00 | 0.32 | 0.01 | 92 | 1018.6 |
| 20260831110038 | 63 | 338 | 0.0 | 0.0 | 0.00 | 0.32 | 0.01 | 92 | 1018.6 |
| 20260831104539 | 63 | 338 | 0.0 | 1.0 | 0.00 | 0.32 | 0.01 | 92 | 1018.5 |
| 20260831103039 | 62 | 338 | 0.0 | 1.0 | 0.00 | 0.32 | 0.01 | 92 | 1018.3 |
| 20260831101533 | 63 | 338 | 0.0 | 4.0 | 0.00 | 0.32 | 0.01 | 92 | 1018.1 |
| 20260831100036 | 62 | 331 | 0.0 | 4.0 | 0.00 | 0.32 | 0.01 | 92 | 1017.8 |
| 20260831094530 | 63 | 325 | 0.0 | 4.0 | 0.00 | 0.32 | 0.01 | 92 | 1017.6 |
| 20260831093031 | 63 | 335 | 1.0 | 4.0 | 0.00 | 0.32 | 0.01 | 92 | 1017.4 |
| 20260831091529 | 63 | 327 | 0.0 | 3.0 | 0.00 | 0.32 | 0.01 | 92 | 1017.3 |
| 20260831090025 | 63 | 325 | 0.0 | 3.0 | 0.00 | 0.32 | 0.01 | 92 | 1017.3 |
| 20260831084527 | 63 | 317 | 0.0 | 1.0 | 0.00 | 0.32 | 0.01 | 92 | 1017.2 |
| 20260831083021 | 64 | 317 | 0.0 | 1.0 | 0.00 | 0.32 | 0.01 | 92 | 1017.2 |
| 20260831081522 | 64 | 317 | 0.0 | 2.0 | 0.00 | 0.32 | 0.01 | 92 | 1017.1 |
| 20260831080019 | 64 | 318 | 0.0 | 1.0 | 0.00 | 0.32 | 0.01 | 92 | 1016.9 |
| 20260831074519 | 64 | 318 | 0.0 | 2.0 | 0.00 | 0.32 | 0.01 | 92 | 1016.9 |
| 20260831073014 | 65 | 318 | 0.0 | 1.0 | 0.00 | 0.32 | 0.01 | 92 | 1016.7 |
| 20260831071511 | 65 | 319 | 0.0 | 3.0 | 0.00 | 0.32 | 0.01 | 92 | 1016.7 |
| 20260831070011 | 66 | 318 | 1.0 | 3.0 | 0.00 | 0.32 | 0.01 | 92 | 1016.6 |
| 20260831064508 | 66 | 310 | 0.0 | 2.0 | 0.00 | 0.32 | 0.01 | 92 | 1016.5 |
| 20260831063006 | 67 | 115 | 0.0 | 3.0 | 0.00 | 0.32 | 0.01 | 92 | 1016.4 |
| 20260831061505 | 67 | 159 | 0.0 | 2.0 | 0.00 | 0.32 | 0.01 | 92 | 1016.4 |
| 20260831060004 | 67 | 159 | 0.0 | 0.0 | 0.01 | 0.32 | 0.01 | 92 | 1016.4 |
| 20260831054502 | 67 | 159 | 0.0 | 0.0 | 0.01 | 0.32 | 0.01 | 92 | 1016.2 |
| 20260831053139 | 68 | 159 | 0.0 | 0.0 | 0.01 | 0.32 | 0.01 | 92 | 1016.2 |
| 20260831051605 | 68 | 159 | 0.0 | 0.0 | 0.01 | 0.32 | 0.01 | 92 | 1016.1 |
| 20260831050103 | 68 | 159 | 0.0 | 0.0 | 0.00 | 0.31 | 0.00 | 92 | 1016.1 |
| 20260831044600 | 68 | 159 | 0.0 | 0.0 | 0.08 | 0.31 | 0.00 | 92 | 1016.0 |
| 20260831043056 | 68 | 159 | 0.0 | 0.0 | 0.16 | 0.31 | 0.00 | 92 | 1016.1 |
| 20260831041558 | 69 | 159 | 0.0 | 1.0 | 0.21 | 0.31 | 0.00 | 91 | 1016.2 |
| 20260831040052 | 69 | 159 | 0.0 | 5.0 | 0.23 | 0.31 | 0.00 | 91 | 1016.2 |
| 20260831034552 | 69 | 209 | 1.0 | 4.0 | 0.16 | 0.23 | 0.23 | 91 | 1016.4 |
| 20260831033105 | 69 | 161 | 1.0 | 3.0 | 0.11 | 0.15 | 0.15 | 91 | 1016.4 |
| 20260831031548 | 69 | 168 | 0.0 | 3.0 | 0.08 | 0.10 | 0.10 | 91 | 1016.3 |
| 20260831030047 | 69 | 172 | 0.0 | 3.0 | 0.06 | 0.08 | 0.08 | 90 | 1016.3 |
| 20260831024547 | 69 | 184 | 0.0 | 2.0 | 0.05 | 0.07 | 0.07 | 90 | 1016.4 |
| 20260831023047 | 70 | 184 | 0.0 | 2.0 | 0.03 | 0.04 | 0.04 | 89 | 1016.5 |
| 20260831021545 | 70 | 184 | 0.0 | 4.0 | 0.01 | 0.02 | 0.02 | 88 | 1016.2 |
| 20260831014544 | 70 | 170 | 0.0 | 3.0 | 0.02 | 0.02 | 0.02 | 88 | 1016.5 |
| 20260831013044 | 70 | 163 | 1.0 | 7.0 | 0.01 | 0.01 | 0.01 | 87 | 1016.4 |
| 20260831011546 | 71 | 163 | 1.0 | 5.0 | 0.01 | 0.01 | 0.01 | 85 | 1016.4 |
| 20260831010044 | 71 | 167 | 1.0 | 5.0 | 0.00 | 0.00 | 0.00 | 84 | 1016.3 |
| 20260831004542 | 71 | 188 | 1.0 | 5.0 | 0.00 | 0.00 | 0.00 | 85 | 1016.2 |
| 20260831003041 | 71 | 169 | 1.0 | 3.0 | 0.00 | 0.00 | 0.00 | 84 | 1016.1 |
| 20260831001541 | 71 | 156 | 1.0 | 5.0 | 0.00 | 0.00 | 0.00 | 84 | 1016.1 |
| 20260831000045 | 72 | 184 | 0.0 | 8.0 | 0.00 | 0.00 | 0.00 | 83 | 1015.9 |
| 20260830234541 | 72 | 150 | 1.0 | 5.0 | 0.00 | 0.00 | 0.00 | 82 | 1015.7 |
| 20260830233045 | 72 | 149 | 1.0 | 4.0 | 0.00 | 0.00 | 0.00 | 81 | 1015.7 |
| 20260830231538 | 72 | 137 | 0.0 | 4.0 | 0.00 | 0.00 | 0.00 | 80 | 1015.8 |
| 20260830230038 | 73 | 163 | 1.0 | 6.0 | 0.00 | 0.00 | 0.00 | 79 | 1015.8 |
| 20260830224536 | 73 | 150 | 0.0 | 5.0 | 0.00 | 0.00 | 0.00 | 76 | 1016.0 |
| 20260830223036 | 74 | 169 | 1.0 | 7.0 | 0.00 | 0.00 | 0.00 | 74 | 1016.2 |
| 20260830221539 | 74 | 190 | 2.0 | 8.0 | 0.00 | 0.00 | 0.00 | 73 | 1016.2 |
| 20260830220035 | 74 | 145 | 1.0 | 6.0 | 0.00 | 0.00 | 0.00 | 71 | 1016.1 |
| 20260830214534 | 75 | 157 | 1.0 | 9.0 | 0.00 | 0.00 | 0.00 | 71 | 1016.2 |
| 20260830213037 | 75 | 140 | 0.0 | 4.0 | 0.00 | 0.00 | 0.00 | 70 | 1016.3 |
| 20260830211532 | 76 | 142 | 1.0 | 5.0 | 0.00 | 0.00 | 0.00 | 68 | 1016.4 |
| 20260830210034 | 76 | 160 | 2.0 | 9.0 | 0.00 | 0.00 | 0.00 | 68 | 1016.2 |
| 20260830204530 | 76 | 159 | 1.0 | 8.0 | 0.00 | 0.02 | 0.00 | 67 | 1016.3 |
| 20260830203030 | 77 | 146 | 0.0 | 4.0 | 0.00 | 0.02 | 0.00 | 65 | 1016.4 |
| 20260830201529 | 77 | 171 | 2.0 | 8.0 | 0.00 | 0.02 | 0.00 | 63 | 1016.4 |
| 20260830200027 | 78 | 172 | 2.0 | 6.0 | 0.00 | 0.02 | 0.00 | 64 | 1016.4 |
| 20260830194527 | 78 | 152 | 1.0 | 8.0 | 0.00 | 0.02 | 0.00 | 62 | 1016.8 |
| 20260830193024 | 80 | 147 | 2.0 | 6.0 | 0.00 | 0.02 | 0.00 | 62 | 1016.9 |
| 20260830191522 | 79 | 176 | 1.0 | 4.0 | 0.00 | 0.02 | 0.00 | 57 | 1017.1 |
| 20260830190024 | 80 | 149 | 2.0 | 10.0 | 0.00 | 0.02 | 0.00 | 60 | 1017.1 |
| 20260830184520 | 81 | 169 | 3.0 | 10.0 | 0.00 | 0.02 | 0.00 | 62 | 1017.3 |
| 20260830183019 | 82 | 144 | 1.0 | 6.0 | 0.00 | 0.02 | 0.00 | 61 | 1017.3 |
| 20260830181518 | 83 | 153 | 2.0 | 8.0 | 0.00 | 0.02 | 0.00 | 51 | 1017.5 |
| 20260830180016 | 84 | 110 | 1.0 | 10.0 | 0.00 | 0.02 | 0.00 | 55 | 1017.7 |
| 20260830174515 | 84 | 82 | 2.0 | 7.0 | 0.00 | 0.02 | 0.00 | 53 | 1017.8 |
| 20260830173011 | 83 | 150 | 1.0 | 7.0 | 0.00 | 0.02 | 0.00 | 56 | 1017.9 |
| 20260830171509 | 82 | 150 | 1.0 | 8.0 | 0.00 | 0.02 | 0.00 | 61 | 1018.0 |
| 20260830170028 | 82 | 160 | 1.0 | 6.0 | 0.00 | 0.02 | 0.00 | 61 | 1018.1 |
| 20260830164506 | 82 | 167 | 3.0 | 10.0 | 0.00 | 0.02 | 0.00 | 58 | 1018.3 |
| 20260830163007 | 81 | 157 | 3.0 | 8.0 | 0.00 | 0.02 | 0.00 | 57 | 1018.3 |
| 20260830161501 | 80 | 147 | 2.0 | 7.0 | 0.00 | 0.02 | 0.00 | 57 | 1018.5 |
| 20260830160106 | 80 | 240 | 4.0 | 10.0 | 0.00 | 0.02 | 0.00 | 60 | 1018.7 |
| 20260830154556 | 79 | 189 | 3.0 | 8.0 | 0.00 | 0.02 | 0.00 | 61 | 1019.0 |
| 20260830153054 | 77 | 165 | 2.0 | 6.0 | 0.00 | 0.02 | 0.00 | 63 | 1019.0 |
| 20260830151603 | 78 | 152 | 1.0 | 5.0 | 0.00 | 0.02 | 0.00 | 63 | 1019.1 |
| 20260830150049 | 78 | 234 | 1.0 | 6.0 | 0.00 | 0.02 | 0.00 | 66 | 1019.3 |